www.pogodaiklimat.ru
ПОГОДА в Ногалесе
Время
и дата
13:54 29.11
14:54 29.11
15:54 29.11
16:54 29.11
17:54 29.11
18:54 29.11
19:54 29.11
20:54 29.11
21:54 29.11
22:54 29.11
23:54 29.11
00:54 30.11
01:54 30.11
02:54 30.11
03:54 30.11
04:54 30.11
05:54 30.11
06:54 30.11
07:54 30.11
08:54 30.11
09:54 30.11
10:54 30.11
11:54 30.11
12:54 30.11
13:54 30.11
14:54 30.11
15:54 30.11
16:54 30.12
17:54 30.11
18:54 30.11
19:54 30.11
20:54 30.11
21:54 30.11
22:54 30.11
23:54 30.11
00:54 01.12
01:54 01.12
02:54 01.12
03:54 01.12
04:54 01.12
05:54 01.12
06:54 01.12
07:54 01.12
08:54 01.12
09:54 01.12
10:54 01.12
11:54 01.12
12:54 01.12
Ветер
(напр.,м/с)
Видим. Явления Облачность Т
(С)
Тd
(С)
f
(%)
Тe
(С)
Тes
(С)
Комфортность P
(гПа)
Po
(гПа)
Тmin
(С)
Tmax
(С)
R
(мм)
R24
(мм)
S
(см)
Ю 5
{9}
16 км ясно +19.4 -7.2 16 +19 +23 1010.7 878.6
Ю 4
{8}
16 км ясно +18.9 -7.2 16 +19 +23 1011.0 878.9
ЮЗ 4 16 км ясно +18.9 -6.1 18 +19 +21 1011.2 878.9
ЮЗ 3 16 км ясно +16.7 -5.6 21 +17 +18 1011.7 879.2 +16.7 +20.0
штиль 0 16 км ясно +13.3 -5.0 28 +13 +14 1012.8 879.5
штиль 0 16 км ясно +10.0 -5.0 34 +10 +10 1013.7 880.1
В 2 16 км ясно +8.9 -5.0 37 +8 +8 1014.3 880.4
В 2 16 км ясно +7.2 -4.4 43 +6 +6 1014.6 881.0
СВ 2 16 км ясно +7.8 -2.8 47 +6 +6 1014.8 881.3
СВ 2 16 км ясно +6.1 -3.3 51 +4 +4 1015.0 881.6 +5.0 +16.7
В 2 16 км ясно +4.4 -3.3 57 +2 +2 1015.3 881.9
В 3 16 км ясно +4.4 -2.8 59 +1 +1 1014.9 881.6
штиль 0 16 км ясно +3.9 -2.2 64 +3 +3 1014.9 881.6
СВ 3 16 км ясно +3.3 -2.2 67 0 0 1015.1 881.6
штиль 0 16 км ясно +2.2 -2.8 69 +1 +1 1015.0 881.3
СВ 3 16 км ясно +3.9 -2.2 64 +1 +1 1015.0 881.3 +2.2 +6.7
В 2 16 км ясно +2.2 -2.8 69 -1 -1 1015.9 881.3
СВ 3 16 км ясно +3.3 -2.2 67 0 0 1016.5 881.6
В 3 16 км ясно +6.7 -1.7 55 +4 +4 1016.9 882.1
16 км ясно +10.6 -1.1 44 +10 +11 1016.6 882.1
Ю 2 16 км ясно +15.0 0.0 36 +15 +17 1015.9 882.4
Ю 6 16 км ясно +19.4 -1.7 24 +19 +21 1015.3 882.1 +1.7 +19.4
16 км ясно +20.6 -2.2 21 +20 +29 1014.3 881.3
16 км ясно +21.7 -5.0 16 +20 +31 1013.1 880.4
16 км ясно +22.8 -5.0 15 +21 +31 комфорт 1012.2 879.5
16 км ясно +22.8 -5.6 15 +21 +29 комфорт 1011.9 879.2
16 км ясно +21.7 -4.4 17 +21 +26 комфорт 1012.0 879.2
16 км ясно +19.4 -3.3 21 +19 +21 1012.5 879.5 +19.4 +22.8
ЮЗ 2 16 км ясно +15.6 -3.3 27 +16 +16 1013.6 879.8
В 3 16 км ясно +11.1 -3.3 36 +10 +10 1014.6 880.1
В 2 16 км ясно +10.6 -3.3 38 +10 +10 1014.6 880.4
В 3 16 км ясно +8.9 -3.3 42 +7 +7 1014.6 881.0
В 2 16 км ясно +7.2 -3.3 47 +6 +6 1014.6 881.0
СВ 2 16 км ясно +7.2 -3.3 47 +6 +6 1014.1 881.0 +6.7 +19.4
штиль 0 16 км ясно +6.7 -3.3 49 +6 +6 1013.8 881.0
СВ 2 16 км ясно +5.6 -3.3 53 +4 +4 1013.4 880.7
В 2 16 км ясно +5.0 -3.9 53 +3 +3 1013.3 880.7
В 3 16 км ясно +4.4 -3.9 55 +1 +1 1013.3 880.7
СВ 2 16 км ясно +3.9 -3.9 57 +2 +2 1013.9 881.0
штиль 0 16 км ясно +3.3 -3.3 62 +3 +3 1014.2 880.7 +3.3 +7.2
штиль 0 16 км ясно +3.3 -3.3 62 +3 +3 1015.2 881.3
штиль 0 16 км ясно +2.2 -3.3 67 +2 +2 1016.5 881.6
штиль 0 16 км ясно +6.7 -1.7 55 +6 +6 1016.2 881.9
ЮВ 3 16 км ясно +12.2 -0.6 41 +11 +11 1016.4 882.4
Ю 4 16 км ясно +17.2 +0.6 33 +17 +18 1016.2 882.7
Ю 5
{8}
16 км ясно +20.0 -1.7 23 +20 +22 1015.5 882.4 +2.2 +20.0
ЮВ 4
{9}
16 км ясно +21.1 -3.3 19 +20 +25 1014.9 881.9
Ю 6
{11}
16 км ясно +21.7 -5.6 16 +20 +23 1014.1 881.3
Местоположение метеостанции Nogales International Airport: широта 31.4208 долгота -110.8458 высота над уровнем моря 1198 м.
В архиве по умолчанию представлена погода в Ногалесе за последние 1-2 суток. Обновление информации о фактической погоде в базе происходит ежечасно! Архивные данные за месяц целиком и за предыдущие месяцы Вы можете получить, выбрав интересующий диапазон дат из раскрывающегося списка и нажав кнопку "Ввод!".
Внимание! Архив погоды МЕТАР в базе сайта по станциям, не включенным в климатический монитор, хранится не более 60 дней. Нет смысла пытаться выбрать более раннюю дату.
*Определитесь, кто Вы:
Внимание! Время в таблицах - местное (без учета летнего времени). Для получения всемирного времени необходимо вычесть поправку, которая равна -7 ч.
Смотрите также архив погоды в соседних городах и на ближайших метеорологических станциях:
Партнеры нашего сайта:      
Пояснения к столбцам:
  • Ветер - указаны скорость ветра в м/с - средняя за 10 мин, порывы в срок и между сроками (в фигурных скобках) и направление, откуда дует ветер: С - северный,
  • СВ - северо-восточный, В - восточный, ЮВ - юго-восточный, Ю - южный, ЮЗ - юго-западный, З - западный, СЗ - северо-западный.
  • Видимость - горизонтальная дальность видимости в метрах или километрах. При видимости от 1 до 10 км при отсутствии осадков обычно наблюдается дымка, при ухудшении видимости до 1 км и менее - туман. В сухую погоду видимость может ухудшаться дымом, пылью или мглою.
  • Явления - указаны атмосферные явления, наблюдавшиеся в срок или в последний час перед сроком; фигурными скобками обозначены явления, наблюдавшиеся между сроками (за 1-3 часа до срока); квадратными скобками обозначены град или гололедные отложения с указанием их диаметра в мм.
  • Облачность - указаны через наклонную черту общая и нижняя облачность в баллах и высота нижней границы облаков в метрах; квадратными скобками обозначены формы облаков: Ci - перистые, Cs - перисто-слоистые, Cc - перисто-кучевые, Ac - высококучевые, As - высокослоистые, Sc - слоисто-кучевые, Ns - слоисто-дождевые, Cu - кучевые, Cb - кучево-дождевые. Подробнее классификацию облаков см. в Атласе облаков (PDF).
  • T - Температура воздуха - температура, измеренная на высоте 2 м над землей.
  • Td - Температура точки росы - температура, при понижении до которой содержащийся в воздухе водяной пар достигнет насыщения.
  • f - Относительная влажность воздуха - влажноcть воздуха, измеренная на высоте 2 м над землей.
  • Te - Эффективная температура - температура, которую ощущает одетый по сезону человек в тени. Характеристика душности погоды. При расчете учитывается влияние влажности воздуха и скорости ветра на теплоощущения человека.
  • Tes - Эффективная температура на солнце - температура, которую ощущает человек, с поправкой на солнечный нагрев. Характеристика знойности погоды. Зависит от высоты солнца над горизонтом, облачности и скорости ветра. Ночью, в пасмурную погоду, а также при ветре 12 м/с и более поправка равна нулю.
  • P - Атмосферное давление - приведенное к уровню моря атмосферное давление.
  • Po - Атмосферное давление - измеренное на уровне метеостанции атмосферное давление.
  • Tmin - Минимальная температура - минимум температуры воздуха на высоте 2 м над землей.
  • Tmax - Максимальная температура - максимум температуры воздуха на высоте 2 м над землей.
  • R - Количество осадков - Количество выпавших осадков за период времени, мм. При наведении курсора мыши на число - период времени, за который выпало указанное количество осадков.
  • R24 - Количество осадков - Количество выпавших осадков за 24 часа, мм.
  • S - Снежный покров - Высота снежного покрова, см. При наведении курсора мыши на число - состояние снежного покрова и степень покрытия местности в баллах.